�N����,����,�~����,�C��,���x,�C��,����,���ϕ���,�ő�u�ԕ���,�ő厞����,���˗�,�I�_���x,�n�����x,�ő啗���N��,DTYPE
"16/07/20","00:10",0.0,22.4,83.3,1006.2,316.6,0.8,1.4,352.3,0.00,19.5,25.4,"00:08:24",1
"16/07/20","00:20",0.0,22.5,82.9,1006.2,340.1,1.3,3.4,324.9,0.00,19.5,25.3,"00:16:56",1
"16/07/20","00:30",0.0,22.7,82.2,1006.4,323.7,1.3,3.1,356.2,0.00,19.5,25.3,"00:21:36",1
"16/07/20","00:40",0.0,22.2,83.4,1006.4,308.9,1.1,1.9,306.3,0.00,19.3,25.3,"00:31:04",1
"16/07/20","00:50",0.0,21.8,85.1,1006.0,317.8,1.3,1.9,329.7,0.00,19.2,25.6,"00:44:08",1
"16/07/20","01:00",0.0,21.6,86.1,1006.2,307.6,1.2,1.7,329.1,0.00,19.2,25.3,"00:57:12",1
"16/07/20","01:10",0.0,21.6,86.5,1006.2,314.1,1.5,1.9,316.9,0.00,19.3,25.2,"01:09:52",1
"16/07/20","01:20",0.0,21.6,86.8,1006.0,310.4,1.6,2.0,322.9,0.00,19.3,25.2,"01:13:20",1
"16/07/20","01:30",0.0,21.6,86.7,1006.4,315.8,1.1,1.9,338.5,0.00,19.3,24.9,"01:22:40",1
"16/07/20","01:40",0.0,21.6,86.9,1006.2,313.9,1.2,2.0,323.3,0.00,19.4,24.9,"01:37:28",1
"16/07/20","01:50",0.0,21.6,87.0,1006.0,315.6,1.2,1.9,330.8,0.00,19.4,24.9,"01:45:52",1
"16/07/20","02:00",0.0,21.6,86.9,1006.4,311.7,1.2,2.0,341.9,0.00,19.4,25.0,"01:50:24",1
"16/07/20","02:10",0.0,21.6,86.7,1006.4,315.0,1.2,2.2,323.6,0.00,19.3,25.0,"02:01:12",1
"16/07/20","02:20",0.0,21.6,86.6,1006.2,317.7,1.2,2.7,0.2,0.00,19.3,24.8,"02:10:02",1
"16/07/20","02:30",0.0,21.6,86.4,1006.2,325.6,1.3,2.8,334.8,0.00,19.3,24.7,"02:29:36",1
"16/07/20","02:40",0.0,21.6,86.3,1006.2,323.3,1.3,2.8,341.3,0.00,19.3,24.8,"02:35:20",1
"16/07/20","02:50",0.0,21.5,86.6,1006.7,316.1,1.0,1.7,317.7,0.00,19.2,24.4,"02:40:56",1
"16/07/20","03:00",0.0,21.4,87.0,1006.4,322.9,1.3,3.9,332.5,0.00,19.2,24.8,"02:58:56",1
"16/07/20","03:10",0.0,21.4,87.0,1006.7,316.3,1.2,2.4,312.7,0.00,19.2,24.8,"03:01:36",1
"16/07/20","03:20",0.0,21.4,87.0,1006.4,321.7,1.7,3.7,331.3,0.00,19.2,24.6,"03:16:24",1
"16/07/20","03:30",0.0,21.5,87.0,1006.2,322.1,1.6,3.2,344.6,0.00,19.3,24.3,"03:26:16",1
"16/07/20","03:40",0.0,21.4,87.2,1006.4,324.1,1.8,3.3,346.4,0.00,19.2,24.6,"03:37:44",1
"16/07/20","03:50",0.0,21.4,87.3,1006.4,322.6,1.8,2.8,353.9,0.00,19.2,24.4,"03:44:32",1
"16/07/20","04:00",0.0,21.3,87.4,1006.7,322.6,1.6,2.2,338.2,0.00,19.2,24.5,"03:54:24",1
"16/07/20","04:10",0.0,21.2,87.7,1006.7,326.9,1.6,2.6,345.5,0.00,19.1,24.5,"04:03:28",1
"16/07/20","04:20",0.0,21.1,88.2,1006.7,325.4,1.7,2.7,338.5,0.00,19.1,24.3,"04:16:08",1
"16/07/20","04:30",0.0,21.1,88.3,1006.7,325.4,1.7,3.2,342.7,0.00,19.1,24.3,"04:27:28",1
"16/07/20","04:40",0.0,21.0,88.2,1006.9,322.9,1.6,2.9,342.6,0.00,19.0,24.5,"04:30:40",1
"16/07/20","04:50",0.0,20.9,88.7,1006.9,324.5,1.5,2.1,340.2,0.00,19.0,24.2,"04:48:40",1
"16/07/20","05:00",0.0,20.9,89.2,1006.9,322.6,1.5,2.8,340.6,0.00,19.1,24.2,"04:51:52",1
"16/07/20","05:10",0.0,20.9,89.4,1006.9,324.1,1.6,3.1,345.8,0.00,19.1,23.9,"05:03:20",1
"16/07/20","05:20",0.0,20.9,89.4,1006.9,328.7,1.5,2.7,338.1,0.00,19.1,24.0,"05:14:24",1
"16/07/20","05:30",0.0,20.9,89.5,1007.1,329.6,1.7,2.9,333.4,0.00,19.1,24.3,"05:24:00",1
"16/07/20","05:40",0.0,20.9,89.4,1006.9,330.7,2.0,3.2,341.3,0.00,19.1,24.2,"05:33:36",1
"16/07/20","05:50",0.0,21.2,89.3,1006.9,323.1,1.6,2.1,357.9,0.00,19.4,24.0,"05:43:44",1
"16/07/20","06:00",0.0,21.4,88.5,1007.1,328.1,1.7,2.6,338.9,0.01,19.5,24.0,"05:54:00",1
"16/07/20","06:10",0.0,22.0,87.1,1006.9,335.0,1.7,3.5,316.8,0.02,19.8,24.0,"06:08:32",1
"16/07/20","06:20",0.0,22.7,85.1,1006.9,327.5,1.6,3.4,342.2,0.04,20.1,24.0,"06:15:52",1
"16/07/20","06:30",0.0,23.3,82.6,1006.9,323.8,1.2,2.1,357.4,0.04,20.2,24.0,"06:26:16",1
"16/07/20","06:40",0.0,23.6,81.1,1007.1,322.3,1.2,1.9,316.9,0.05,20.2,24.0,"06:32:24",1
"16/07/20","06:50",0.0,24.0,79.9,1006.9,324.3,1.0,1.7,308.6,0.08,20.4,24.0,"06:40:08",1
"16/07/20","07:00",0.0,24.8,77.7,1006.9,325.1,0.6,1.4,336.7,0.11,20.7,24.4,"06:53:12",1
"16/07/20","07:10",0.0,25.6,74.6,1006.9,332.4,0.3,1.8,313.8,0.14,20.8,24.5,"07:06:16",1
"16/07/20","07:20",0.0,26.0,72.9,1006.7,358.0,0.6,2.2,335.6,0.17,20.8,24.5,"07:12:56",1
"16/07/20","07:30",0.0,26.2,73.5,1006.2,345.3,0.5,2.6,356.8,0.19,21.1,24.5,"07:22:48",1
"16/07/20","07:40",0.0,26.6,70.1,1005.7,353.5,0.7,2.1,341.1,0.22,20.7,24.8,"07:33:28",1
"16/07/20","07:50",0.0,27.0,68.4,1006.2,327.3,0.3,2.1,354.6,0.22,20.7,25.0,"07:42:00",1
"16/07/20","08:00",0.0,26.9,68.0,1005.5,358.3,0.6,1.9,356.6,0.23,20.5,25.0,"07:57:20",1
"16/07/20","08:10",0.0,27.2,68.7,1005.5,3.0,0.6,1.9,222.3,0.26,21.0,25.2,"08:05:36",1
"16/07/20","08:20",0.0,26.8,69.4,1005.5,350.0,0.5,1.7,15.6,0.18,20.8,25.2,"08:17:20",1
"16/07/20","08:30",0.0,27.5,65.5,1005.7,328.4,0.5,2.0,356.4,0.29,20.5,25.4,"08:27:04",1
"16/07/20","08:40",0.0,27.3,68.5,1006.0,276.9,0.2,1.2,215.1,0.21,21.0,25.4,"08:31:28",1
"16/07/20","08:50",0.0,27.0,67.8,1006.0,147.2,0.3,1.3,222.7,0.20,20.6,25.5,"08:46:32",1
"16/07/20","09:00",0.0,27.0,70.8,1006.0,304.3,0.6,1.9,11.4,0.20,21.3,25.7,"08:54:48",1
"16/07/20","09:10",0.0,27.9,67.2,1006.2,219.1,0.8,2.7,220.9,0.40,21.3,25.8,"09:04:00",1
"16/07/20","09:20",0.0,28.8,63.6,1006.4,117.8,0.7,1.8,13.9,0.45,21.3,26.1,"09:16:00",1
"16/07/20","09:30",0.0,28.1,64.0,1006.4,201.2,1.7,3.2,222.1,0.43,20.7,26.4,"09:21:36",1
"16/07/20","09:40",0.0,28.8,61.9,1006.7,193.2,1.5,2.9,202.0,0.50,20.8,26.4,"09:38:48",1
"16/07/20","09:50",0.0,29.0,61.0,1006.9,189.0,1.2,3.2,220.4,0.48,20.8,26.7,"09:43:52",1
"16/07/20","10:00",0.0,28.8,61.9,1006.9,197.4,1.5,3.5,225.5,0.46,20.8,27.0,"09:53:28",1
"16/07/20","10:10",0.0,29.5,58.7,1007.1,173.9,1.2,3.7,220.4,0.51,20.6,27.3,"10:05:44",1
"16/07/20","10:20",0.0,29.2,60.2,1007.1,241.5,0.8,2.0,15.5,0.34,20.7,27.2,"10:11:28",1
"16/07/20","10:30",0.0,30.0,56.0,1007.1,28.9,0.8,2.1,9.6,0.54,20.3,27.6,"10:23:20",1
"16/07/20","10:40",0.0,30.5,58.9,1007.4,135.4,1.1,4.1,203.9,0.57,21.6,27.8,"10:39:12",1
"16/07/20","10:50",0.0,30.4,57.3,1007.1,194.8,1.2,3.1,187.0,0.56,21.1,27.9,"10:40:40",1
"16/07/20","11:00",0.0,29.7,61.1,1006.9,207.2,1.5,3.2,202.4,0.42,21.4,28.2,"10:53:28",1
"16/07/20","11:10",0.0,29.0,61.4,1006.9,240.7,1.0,3.1,214.5,0.27,20.9,28.3,"11:04:00",1
"16/07/20","11:20",0.0,31.5,58.2,1006.7,60.2,0.7,1.9,72.5,0.63,22.3,28.6,"11:15:04",1
"16/07/20","11:30",0.0,31.3,56.4,1006.7,175.3,2.1,4.7,196.5,0.64,21.6,28.8,"11:22:08",1
"16/07/20","11:40",0.0,30.1,57.0,1006.7,209.0,1.2,4.1,217.4,0.38,20.7,29.0,"11:31:20",1
"16/07/20","11:50",0.0,30.7,54.9,1006.4,23.0,1.0,2.1,19.8,0.41,20.6,28.9,"11:49:04",1
"16/07/20","12:00",0.0,31.1,53.9,1006.4,98.1,0.8,2.0,359.6,0.43,20.7,29.1,"11:52:16",1
"16/07/20","12:10",0.0,31.1,53.7,1006.2,32.6,1.3,2.9,356.1,0.52,20.6,29.3,"12:04:24",1
"16/07/20","12:20",0.0,31.5,50.4,1006.0,116.2,1.0,3.1,154.4,0.46,20.0,29.3,"12:11:20",1
"16/07/20","12:30",0.0,31.9,53.5,1006.0,92.5,1.0,2.2,154.7,0.52,21.3,29.5,"12:28:40",1
"16/07/20","12:40",0.0,31.9,51.8,1006.4,137.9,1.7,4.2,131.9,0.62,20.8,29.7,"12:31:20",1
"16/07/20","12:50",0.0,32.8,50.5,1006.9,201.5,0.6,1.8,229.2,0.60,21.2,29.9,"12:49:52",1
"16/07/20","13:00",0.0,32.7,48.1,1006.4,297.9,0.6,1.7,347.9,0.62,20.3,29.9,"12:54:00",1
"16/07/20","13:10",0.0,33.4,47.0,1006.7,15.2,0.7,2.5,14.4,0.61,20.6,30.0,"13:08:24",1
"16/07/20","13:20",0.0,33.6,48.3,1006.7,331.5,1.0,3.4,357.6,0.61,21.2,29.8,"13:18:40",1
"16/07/20","13:30",0.0,33.4,48.1,1007.1,2.6,0.7,1.7,350.6,0.59,21.0,29.8,"13:20:32",1
"16/07/20","13:40",0.0,33.1,50.4,1006.7,287.5,1.1,2.9,235.6,0.57,21.5,30.2,"13:30:16",1
"16/07/20","13:50",0.0,33.8,49.0,1006.9,248.9,0.6,3.1,227.1,0.57,21.6,29.9,"13:49:28",1
"16/07/20","14:00",0.0,32.7,51.4,1006.4,222.3,2.0,5.4,227.0,0.52,21.4,29.8,"13:58:08",1
"16/07/20","14:10",0.0,33.5,49.9,1006.0,244.5,1.0,2.9,220.1,0.54,21.7,30.1,"14:06:12",1
"16/07/20","14:20",0.0,33.1,48.4,1006.0,251.0,1.1,2.6,357.8,0.44,20.8,30.3,"14:19:28",1
"16/07/20","14:30",0.0,32.7,47.0,1005.7,11.1,0.8,2.7,340.1,0.26,20.0,29.9,"14:20:08",1
"16/07/20","14:40",0.0,33.8,46.5,1005.2,1.4,0.7,3.6,352.7,0.48,20.8,30.2,"14:35:12",1
"16/07/20","14:50",0.0,34.4,48.0,1005.5,257.3,0.5,2.0,356.8,0.46,21.8,30.2,"14:48:56",1
"16/07/20","15:00",0.0,34.2,46.8,1005.5,354.8,0.7,4.1,339.5,0.44,21.2,30.4,"14:50:56",1
"16/07/20","15:10",0.0,34.1,43.4,1005.2,1.5,0.7,3.4,59.2,0.43,19.9,30.5,"15:09:44",1
"16/07/20","15:20",0.0,33.7,46.2,1005.7,336.7,1.2,3.2,27.9,0.41,20.6,30.6,"15:17:28",1
"16/07/20","15:30",0.0,33.6,46.2,1005.5,356.6,1.3,3.1,17.3,0.39,20.5,30.5,"15:25:52",1
"16/07/20","15:40",0.0,33.7,46.1,1005.0,304.4,0.6,2.5,350.7,0.36,20.5,30.6,"15:30:48",1
"16/07/20","15:50",0.0,33.8,45.9,1005.0,344.9,1.5,3.4,10.7,0.33,20.6,30.4,"15:41:20",1
"16/07/20","16:00",0.0,33.5,46.8,1004.8,357.7,1.5,3.4,356.9,0.28,20.6,30.3,"15:51:12",1
"16/07/20","16:10",0.0,33.0,49.0,1005.0,345.3,1.5,3.9,346.6,0.25,20.9,30.4,"16:03:36",1
"16/07/20","16:20",0.0,32.1,51.2,1004.3,359.8,1.8,4.8,342.8,0.22,20.8,30.2,"16:14:56",1
"16/07/20","16:30",0.0,31.7,53.0,1004.1,358.7,1.5,5.0,4.2,0.21,21.0,30.2,"16:20:40",1
"16/07/20","16:40",0.0,31.4,54.1,1004.1,6.5,1.7,4.4,353.7,0.22,21.0,30.0,"16:30:48",1
"16/07/20","16:50",0.0,31.0,55.3,1004.1,13.0,2.0,4.2,8.2,0.20,21.0,29.7,"16:49:44",1
"16/07/20","17:00",0.0,30.6,55.5,1003.6,350.9,1.6,3.6,355.0,0.17,20.7,29.7,"16:55:20",1
"16/07/20","17:10",0.0,30.2,57.0,1003.1,17.1,2.1,5.4,63.1,0.07,20.8,29.7,"17:01:20",1
"16/07/20","17:20",0.0,29.9,57.8,1002.9,3.6,2.1,3.9,349.4,0.02,20.7,29.3,"17:17:06",1
"16/07/20","17:30",0.0,29.5,57.5,1003.1,6.2,1.7,4.1,357.4,0.02,20.3,29.3,"17:24:56",1
"16/07/20","17:40",0.0,29.2,57.7,1002.9,6.4,2.0,5.4,343.3,0.01,20.0,29.1,"17:36:56",1
"16/07/20","17:50",0.0,29.0,58.8,1002.6,4.8,2.2,4.4,10.5,0.01,20.2,29.1,"17:48:48",1
"16/07/20","18:00",0.0,28.7,59.0,1002.2,359.9,2.1,4.8,0.6,0.01,19.9,29.0,"17:53:54",1
"16/07/20","18:10",0.0,28.4,60.3,1002.9,356.3,2.1,5.6,335.8,0.00,20.0,28.7,"18:03:20",1
"16/07/20","18:20",0.0,28.0,61.3,1002.9,344.1,2.0,3.7,5.1,0.00,19.9,28.5,"18:18:32",1
"16/07/20","18:30",0.0,27.6,62.4,1003.6,342.3,2.0,4.9,341.4,0.00,19.8,28.4,"18:21:36",1
"16/07/20","18:40",0.0,27.2,62.9,1003.8,350.3,2.1,4.4,356.8,0.00,19.6,28.4,"18:30:56",1
"16/07/20","18:50",0.0,26.9,62.2,1004.1,356.9,3.2,6.6,321.1,0.00,19.1,28.1,"18:44:24",1
"16/07/20","19:00",0.0,26.6,63.3,1004.5,2.4,2.6,6.0,353.4,0.00,19.1,27.9,"18:52:24",1
"16/07/20","19:10",0.0,26.1,64.3,1004.5,354.0,2.7,5.8,341.2,0.00,18.9,27.9,"19:02:48",1
"16/07/20","19:20",0.0,25.8,65.7,1005.0,356.1,2.7,6.3,1.4,0.00,18.9,27.8,"19:14:24",1
"16/07/20","19:30",0.0,25.4,66.9,1005.5,353.3,2.2,5.1,350.5,0.00,18.8,27.7,"19:29:04",1
"16/07/20","19:40",0.0,25.1,68.0,1005.7,342.6,2.2,5.4,349.1,0.00,18.8,27.3,"19:39:04",1
"16/07/20","19:50",0.0,24.9,68.8,1005.7,343.5,1.7,3.9,37.1,0.00,18.8,27.6,"19:43:36",1
"16/07/20","20:00",0.0,24.8,69.0,1005.5,352.2,1.6,2.9,359.9,0.00,18.8,27.6,"19:59:36",1
"16/07/20","20:10",0.0,24.7,69.6,1006.2,1.9,2.0,3.7,340.0,0.00,18.8,27.2,"20:09:28",1
"16/07/20","20:20",0.0,24.6,69.7,1006.2,359.8,2.0,3.6,0.2,0.00,18.7,26.9,"20:15:12",1
"16/07/20","20:30",0.0,24.4,70.8,1006.2,346.0,1.5,4.1,335.4,0.00,18.8,27.1,"20:28:00",1
"16/07/20","20:40",0.0,24.2,71.9,1006.4,342.1,1.7,4.7,348.6,0.00,18.9,26.8,"20:33:52",1
"16/07/20","20:50",0.0,24.0,72.3,1006.4,341.5,1.8,3.9,351.8,0.00,18.7,26.8,"20:40:48",1
"16/07/20","21:00",0.0,23.9,73.2,1006.4,340.1,2.2,3.9,353.0,0.00,18.9,26.9,"20:54:40",1
"16/07/20","21:10",0.0,23.8,73.6,1006.2,314.8,1.3,3.9,318.6,0.00,18.8,26.5,"21:01:04",1
"16/07/20","21:20",0.0,23.7,73.8,1006.4,334.7,1.8,3.6,348.4,0.00,18.8,26.7,"21:13:28",1
"16/07/20","21:30",0.0,23.7,73.9,1006.4,335.4,2.1,5.9,333.5,0.00,18.8,26.4,"21:22:00",1
"16/07/20","21:40",0.0,23.7,74.2,1006.4,322.7,1.7,4.0,339.6,0.00,18.9,26.2,"21:36:24",1
"16/07/20","21:50",0.0,23.6,74.7,1006.4,325.5,1.7,3.3,334.0,0.00,18.9,26.3,"21:47:44",1
"16/07/20","22:00",0.0,23.4,75.7,1006.4,316.6,1.3,3.2,10.6,0.00,18.9,26.2,"21:57:04",1
"16/07/20","22:10",0.0,23.2,76.5,1006.4,310.2,1.3,3.3,334.3,0.00,18.9,26.2,"22:04:40",1
"16/07/20","22:20",0.0,23.1,76.9,1006.7,319.1,1.5,3.5,343.3,0.00,18.9,26.0,"22:12:16",1
"16/07/20","22:30",0.0,23.1,76.9,1006.0,332.0,1.5,3.3,345.7,0.00,18.9,26.1,"22:20:32",1
"16/07/20","22:40",0.0,22.9,77.1,1006.4,298.1,1.1,2.2,333.9,0.00,18.7,25.9,"22:34:16",1
"16/07/20","22:50",0.0,22.8,77.7,1006.7,273.6,0.8,1.6,328.2,0.00,18.7,26.0,"22:46:16",1
"16/07/20","23:00",0.0,22.7,78.1,1006.7,288.7,1.1,2.4,344.3,0.00,18.7,26.0,"22:56:16",1
"16/07/20","23:10",0.0,22.7,78.2,1006.7,284.8,1.3,2.0,340.5,0.00,18.7,25.8,"23:06:32",1
"16/07/20","23:20",0.0,22.5,78.7,1006.4,283.4,1.1,1.6,316.0,0.00,18.7,25.7,"23:11:12",1
"16/07/20","23:30",0.0,22.3,80.0,1006.9,291.3,1.0,1.6,295.2,0.00,18.7,25.4,"23:26:32",1
"16/07/20","23:40",0.0,22.2,80.8,1006.2,288.4,1.0,1.6,308.9,0.00,18.8,25.6,"23:31:44",1
"16/07/20","23:50",0.0,22.0,81.4,1006.2,297.0,1.1,2.1,310.6,0.00,18.7,25.5,"23:44:08",1
"16/07/20","24:00",0.0,21.9,82.2,1006.2,293.0,1.0,1.6,312.3,0.00,18.8,25.6,"23:54:08",1
